SCP
0 0 0 0 0 0 0 0 0 0 0 0 0 0 0 0 0 0 0 0 0 0 0 0 0 0 0 0 0 0 0 0 0 0 -0 0 0 0 0 0 0 0 0 0
0 0 0 0 0 0 0 0 0 0 0 0 -0 0 0 0 0 0 0 0 0 0 0 0 0 0 0 0 0 0 0 0 0 0 0 0 0 0 0 0 0 0 0 0
0 0 0 0 0 0 0 0 0 0 0 0 -0 0 0 0 0 0 0 0 0 0 0 0 0 0 0 0 0 0 0 0 0 0 0 0 0 0 0 0 0 0 0 0
0 0 0 0 0 0 0 0 0 0 0 0 -0 0 0 0 0 0 0 0 0 0 0 0 0 0 0 0 0 0 0 0 0 0 0 0 0 0 0 0 0 0 0 0
0 0 0 0 0 0 0 0 0 0 0 0 0 0 0 0 0 0 0 0 0 0 0 0 0 0 0 0 0 0 0 0 0 0 0 0 0 0 0 0 0 0 0 0
0 0 0 0 0 0 0 0 0 0 0 0 0 0 0 0 0 0 0 0 0 0 0 0 0 0 0 0 0 0 0 0 0 0 0 0 0 0 0 0 0 0 0 0
0 0 0 0 0 0 0 0 0 0 0 0 0 0 0 0 0 0 0 0 0 0 0 0 0 0 0 0 0 0 0 0 0 0 0 0 0 0 0 0 0 0 0 0
0 0 0 0 0 0 0 0 0 0 0 0 0 0 0 0 0 0 0 0 0 0 0 0 0 0 0 0 0 0 0 0 0 0 0 0 0 0 0 0 0 0 0 0
0 0 0 0 0 0 0 0 0 0 0 0 0 0 0 0 0 0 0 0 0 0 0 0 0 0 0 0 0 0 0 0 0 0 0 0 0 0 0 0 0 0 0 0
0 0 0 0 0 0 0 0 0 0 0 0 0 0 0 0 0 0 0 0 0 0 0 0 0 0 0 0 0 0 0 0 0 0 0 0 0 0 0 0 0 0 0 0
0 0 0 0 0 0 0 0 0 0 0 0 0 0 0 0 0 0 0 0 0 0 0 0 0 0 0 0 0 0 0 0 0 0 0 0 0 0 0 0 0 0 0 0
0 0 0 0 0 0 0 0 0 0 0 0 0 0 0 0 0 0 0 0 0 0 0 0 0 0 0 0 0 0 0 0 0 0 0 0 0 0 0 0 0 0 0 0
0 0 0 0 0 0 0 0 0 0 0 0 0 0 0 0 0 0 0 0 0 0 0 0 0 0 0 0 0 0 0 0 0 0 0 0 0 0 0 0 0 0 0 0
0 0 0 0 0 0 0 0 0 0 0 0 0 0 0 0 0 0 0 0 0 0 0 0 0 0 0 0 0 0 0 0 0 0 0 0 0 0 0 0 0 0 0 0
0 0 0 -0 -0 -0 -0 0 0 0 0 0 0 0 0 0 0 0 0 0 0 0 0 0 0 0 0 0 0 0 0 0 0 0 0 0 0 0 0 0 0 0 0 0
0 0 0 -0 -0 -0 0 0 0 0 0 0 0 0 0 0 0 0 0 0 0 0 0 0 0 0 0 0 0 0 0 0 0 0 0 0 0 0 0 0 0 0 0 0
0 0 0 -0 -0 -0 0 0 0 0 0 0 0 0 0 0 0 0 0 0 0 0 0 0 0 0 0 0 0 0 0 0 0 0 0 0 0 0 0 0 0 0 0 0
0 0 0 0 0 0 0 0 0 0 0 0 0 0 0 0 0 0 0 0 0 0 0 0 0 0 0 0 0 0 0 0 0 0 0 0 0 0 0 0 0 0 0 0
-0 -0 -0 -0 -0 -0 -0 0 0 0 0 0 0 0 0 0 0 0 0 0 0 0 0 0 0 0 0 0 0 0 0 0 0 0 0 0 0 0 0 0 0 0 0 0
0 0 -0 -0 -0 -0 -0 -0 0 0 0 0 0 0 0 0 0 0 0 0 0 0 0 0 0 0 0 0 0 0 0 0 0 0 0 0 0 0 0 0 0 0 0 0
0 0 0 0 -0 -0 -0 -0 0 0 0 0 0 0 0 0 0 0 0 0 0 0 0 0 0 0 0 0 0 0 0 0 0 0 0 0 0 0 0 0 0 0 0 0
0 0 0 0 0 0 0 0 0 0 0 0 0 0 0 0 0 0 0 0 0 0 0 0 0 0 0 0 0 0 0 0 0 0 0 0 0 0 0 0 0 0 0 0
0 0 0 0 0 0 0 0 0 0 0 0 0 0 0 0 0 0 0 0 0 0 0 0 0 0 0 0 0 0 0 0 0 0 0 0 0 0 0 0 0 0 0 0
0 0 0 0 0 0 0 0 0 0 0 0 0 0 0 0 0 0 0 0 0 0 0 0 0 0 0 0 0 0 0 0 0 0 0 0 0 0 0 0 0 0 0 0
0 0 0 0 0 0 0 0 0 0 0 0 0 0 0 0 0 0 0 0 0 0 0 0 0 0 0 0 0 0 0 0 0 0 0 0 0 0 0 0 0 0 0 0
0 0 0 0 0 0 0 0 0 0 0 0 0 0 0 0 0 0 0 0 0 0 0 0 0 0 0 0 0 0 0 0 0 0 0 0 0 0 0 0 0 0 0 0
0 0 0 0 0 0 0 0 0 0 0 0 0 0 0 0 0 0 0 0 0 0 0 0 -0 -0 -0 0 0 0 0 0 0 0 0 0 0 0 0 0 0 0 0 0
Wind_Speed
5 5 4 4 5 5 6 7 7 7 7 7 7 7 6 5 6 7 7 8 9 9 8 7 7 7 7 7 7 7 7 7 7 6 5 5 5 4 4 4 4 4 3 3
2 2 2 3 5 5 6 6 6 5 5 6 5 3 4 5 7 7 8 9 9 10 9 9 9 8 7 7 7 7 7 7 6 5 5 5 5 5 4 4 3 3 4 3
3 3 2 5 6 6 4 5 6 7 7 4 3 4 6 7 7 8 8 7 9 9 10 10 10 9 9 8 6 7 7 6 6 6 6 6 6 5 5 5 4 4 3 4
1 0 6 9 5 5 5 4 5 5 5 6 7 6 5 5 7 7 7 8 7 8 8 8 8 7 7 7 7 7 6 6 7 7 6 5 5 6 5 4 4 4 4 4
3 3 6 6 3 3 5 3 3 4 3 4 4 3 1 2 5 7 8 7 7 7 7 7 7 8 8 7 7 7 7 7 7 8 7 6 6 6 5 4 4 4 4 5
4 4 7 7 5 3 4 3 4 4 4 3 5 3 4 4 3 5 5 5 5 5 5 6 6 7 8 7 7 8 8 8 7 8 8 8 7 6 4 4 5 4 4 4
5 5 7 7 5 2 5 7 4 4 5 5 5 6 4 3 3 3 4 4 5 5 5 6 6 7 7 7 8 8 6 6 6 7 7 7 6 5 4 4 4 4 3 3
5 5 9 5 1 5 6 3 3 4 4 4 4 3 3 3 2 3 3 3 5 5 4 4 6 7 7 7 6 5 5 6 6 6 6 6 6 5 5 5 5 4 3 2
7 7 5 3 4 3 3 3 2 3 3 5 4 3 3 3 2 2 2 2 3 5 4 3 5 6 7 6 5 5 5 5 5 6 5 6 6 6 4 4 4 4 4 3
2 4 3 1 1 0 2 3 2 3 4 5 4 4 3 3 2 1 1 2 2 4 4 3 3 5 5 5 6 7 7 6 5 5 5 4 4 5 5 5 5 4 4 4
2 3 2 3 2 1 2 3 3 3 3 4 5 4 3 3 2 1 1 1 2 3 4 4 4 4 4 5 6 6 6 5 5 5 5 5 4 4 5 5 6 7 6 5
5 5 4 4 3 1 2 1 2 3 3 2 4 4 3 3 2 2 1 1 1 2 3 3 3 3 3 4 6 7 5 5 4 4 3 4 4 2 0 2 5 7 7 7
5 4 3 4 2 1 1 1 1 2 3 2 2 3 4 3 2 2 1 1 2 2 3 3 3 3 3 4 5 7 6 6 4 4 4 4 4 4 2 1 0 2 5 7
3 2 2 2 3 2 1 1 1 2 2 2 2 2 3 2 2 2 1 2 2 1 1 3 3 3 3 3 5 5 5 6 6 5 4 4 5 4 4 4 2 1 1 3
5 4 5 3 2 1 1 2 3 2 2 1 2 3 3 2 1 1 1 0 1 0 1 2 3 3 3 4 5 5 4 4 4 4 4 4 4 4 4 4 3 2 1 0
4 2 3 4 4 3 2 3 3 3 2 1 1 1 2 2 1 0 0 1 1 1 2 2 3 3 3 4 4 4 3 5 5 4 4 3 4 4 4 4 4 3 3 3
3 3 3 3 4 3 3 3 4 4 3 2 2 1 2 2 1 0 1 1 1 2 2 3 3 2 2 3 4 3 3 4 5 4 4 4 4 4 5 4 4 4 4 4
6 6 5 5 5 4 3 3 3 3 3 2 2 2 2 1 1 2 2 1 1 2 2 2 2 2 2 3 3 3 3 3 3 3 3 3 4 4 4 4 4 4 3 3
4 5 4 4 4 5 4 3 3 3 3 3 2 2 1 1 1 2 1 1 1 2 3 2 2 3 3 3 3 3 3 3 2 2 3 4 3 3 4 4 4 4 4 3
2 3 3 3 3 3 3 4 4 3 3 3 3 2 0 1 1 1 1 2 3 3 3 2 3 3 3 3 3 3 3 3 3 2 3 3 3 4 4 4 4 4 3 4
2 2 3 3 3 3 3 4 4 4 3 3 3 3 2 2 2 2 2 2 3 2 2 2 2 2 2 3 3 3 3 3 3 3 3 3 3 4 4 4 4 4 3 3
1 2 2 3 3 2 2 3 4 4 3 3 3 2 1 1 2 2 3 3 3 2 1 2 2 2 2 3 3 3 3 3 3 2 3 3 3 4 4 4 3 3 3 3
1 1 2 2 3 3 2 2 3 3 3 3 3 3 3 2 2 2 3 2 2 2 1 2 2 3 3 3 2 3 3 3 3 3 3 3 3 4 4 4 4 3 3 3
1 1 2 2 3 3 2 1 2 2 3 3 3 3 3 2 2 2 2 2 2 2 2 2 2 3 4 2 2 2 2 2 2 2 2 2 3 3 3 3 3 3 3 4
1 2 2 3 3 2 3 2 2 1 2 1 1 2 2 2 2 2 1 2 2 2 1 2 3 3 3 2 3 2 2 2 2 2 2 2 3 3 3 3 3 3 3 3
1 1 2 3 3 2 2 2 2 1 1 1 1 1 1 1 1 1 1 1 2 2 1 2 3 3 2 2 3 2 2 2 2 2 2 3 3 3 3 3 4 3 3 3
0 1 1 1 0 1 1 2 2 2 2 2 1 1 1 1 1 1 1 1 1 1 1 2 2 3 2 2 2 2 2 2 2 2 2 2 2 3 3 4 3 3 3 3
Wind_Direction
232 233 206 216 227 213 192 189 190 217 213 226 216 201 196 182 167 161 172 177 180 185 189 186 185 186 184 186 182 175 172 178 186 185 177 173 173 175 171 169 173 168 160 170
289 263 237 248 237 223 217 205 199 203 235 235 211 183 165 169 167 170 182 188 189 188 187 188 189 190 188 186 182 172 176 185 184 177 174 174 176 172 165 170 172 163 166 174
261 296 357 259 224 208 210 207 190 209 227 209 170 175 185 185 180 183 186 188 190 190 191 193 193 188 187 187 177 172 178 180 177 177 177 179 175 167 170 176 175 175 179 175
203 114 233 246 241 190 186 218 215 204 202 185 180 189 187 178 180 185 184 186 191 191 190 190 187 182 179 173 170 177 181 184 181 178 179 175 169 173 178 174 175 181 187 185
158 209 263 283 256 178 169 235 226 180 191 190 170 120 346 219 185 188 186 184 188 187 182 180 180 177 166 170 172 177 185 188 186 180 178 175 177 181 178 171 179 185 181 179
165 191 226 243 254 210 127 259 267 182 176 165 122 137 242 241 190 178 174 174 172 167 161 168 178 166 164 175 178 189 194 192 187 182 179 182 186 184 177 173 182 180 183 189
185 214 252 256 268 108 154 229 242 172 164 149 160 191 213 192 167 163 158 162 156 151 161 178 170 158 167 178 194 198 187 181 181 183 183 182 180 176 168 168 167 171 181 197
178 205 243 258 164 173 207 213 187 159 155 144 153 144 121 122 141 143 144 148 149 148 160 173 168 163 173 191 198 183 171 173 179 182 184 177 170 174 171 165 165 176 177 200
190 214 240 234 198 214 170 159 183 160 160 144 134 134 131 127 125 138 140 154 158 154 158 167 173 171 183 196 179 168 165 177 182 183 185 174 173 176 173 173 174 185 183 197
207 257 259 283 358 3 152 138 150 145 145 134 133 141 132 125 120 118 146 137 150 150 157 178 185 184 190 186 172 166 169 176 179 178 182 179 178 177 178 184 186 190 193 200
220 264 328 331 345 18 58 78 81 83 111 131 126 127 137 139 141 145 151 165 148 165 176 193 193 195 194 179 168 168 170 171 173 176 176 175 179 185 189 199 194 192 198 194
214 219 191 237 266 266 83 100 106 87 69 97 130 140 139 150 157 156 164 165 141 164 179 192 187 194 195 179 169 165 166 170 173 171 172 168 162 146 115 201 213 207 201 193
213 234 222 225 239 228 154 199 149 124 138 141 145 149 146 144 147 138 135 151 171 190 194 185 176 185 193 180 169 172 175 177 173 171 171 172 169 169 171 4 98 187 197 196
230 208 260 252 242 244 202 177 112 100 128 146 138 136 132 116 107 117 184 219 207 185 190 181 176 194 199 179 173 175 176 178 174 176 177 180 182 181 177 176 186 231 245 198
255 222 210 219 228 238 185 123 102 111 112 100 109 126 125 123 139 216 254 239 132 122 208 187 185 211 205 178 172 172 172 176 174 172 175 178 177 173 176 181 181 175 153 205
251 250 195 182 198 219 196 149 146 160 153 134 119 124 134 138 156 235 343 87 147 216 234 207 206 219 197 175 170 171 174 175 167 166 169 172 175 177 182 183 181 182 192 193
194 228 217 200 210 218 201 184 175 173 165 163 178 159 120 97 76 5 315 274 216 227 224 210 214 204 179 174 171 172 167 170 167 164 178 184 185 188 188 186 189 196 205 199
203 212 210 203 206 195 188 185 171 163 165 173 152 125 123 138 204 249 259 273 349 344 303 239 210 182 179 182 175 168 166 168 174 179 184 189 195 192 186 187 191 195 196 186
206 205 207 199 200 187 182 183 178 167 157 142 135 150 177 199 219 247 250 179 198 279 279 257 210 179 183 188 169 165 165 167 171 181 183 187 191 189 187 190 193 193 184 177
195 184 186 194 197 183 181 179 169 158 155 151 143 136 150 276 250 244 233 233 237 242 239 224 190 187 185 181 160 162 165 173 178 185 182 185 195 196 193 194 191 187 185 186
186 182 175 178 181 189 181 173 164 161 162 163 163 179 205 243 243 224 220 261 281 277 225 198 189 197 187 171 155 162 170 177 183 189 194 197 201 196 193 192 192 190 191 193
190 168 172 170 164 173 187 174 167 164 165 175 180 183 190 236 247 250 241 239 248 243 199 195 198 188 175 155 161 167 176 183 190 190 198 200 198 193 193 194 197 199 198 196
197 160 152 163 167 166 151 149 156 161 170 180 186 190 205 224 217 217 256 267 224 215 193 194 199 169 158 153 163 169 175 184 193 197 205 207 199 193 193 195 199 198 196 193
186 155 165 164 139 130 139 185 178 177 180 185 194 200 199 211 260 259 247 251 245 214 198 191 175 166 155 162 168 171 182 194 197 201 208 209 196 192 192 190 192 194 191 188
173 154 152 142 144 165 182 180 162 163 169 186 211 222 215 208 218 240 244 219 214 212 214 194 185 178 170 172 178 183 192 203 202 200 206 200 194 192 192 186 184 185 185 189
198 171 168 173 177 182 176 162 167 181 174 185 284 283 296 298 234 218 223 227 209 218 219 196 189 186 183 182 188 187 189 200 195 203 204 192 184 184 187 183 181 183 183 182
82 124 135 121 138 175 171 166 172 195 196 191 222 256 251 246 228 218 215 229 218 222 226 212 197 193 188 185 187 186 188 191 192 199 190 180 179 183 184 181 180 178 172 170